Regional Weather Roundup
Issued by NWS San Diego, CA

Home | Current Version | Previous Version | Text Only | Print | Product List | Glossary On
Versions: 1 2 3 4 5 6 7 8 9 10 11 12 13 14 15 16 17 18 19 20 21 22 23 24 25 26 27 28 29 30 31 32 33 34 35 36 37 38 39 40 41 42 43 44 45 46 47 48 49 50
000
ASUS46 KSGX 230110
RWRSGX

SAN DIEGO HOURLY WEATHER ROUNDUP
NATIONAL WEATHER SERVICE SAN DIEGO CA
600 PM PDT TUE JUL 22 2014

NOTE: "FAIR" INDICATES FEW OR NO CLOUDS BELOW 12,000 FEET WITH NO
SIGNIFICANT WEATHER AND/OR OBSTRUCTIONS TO VISIBILITY.

CAZ042-043-060-061-PZZ750-775-230200-

GREATER SAN DIEGO AREA

CITY           SKY/WX    TMP DP  RH WIND       PRES   REMARKS
LINDBERGH FLD  MOSUNNY   76  64  66 W14       30.00F
POINT LOMA       N/A     71  63  76 NW20        N/A
NATIONAL CITY    N/A     76  66  69 NW3       29.99F
CHULA VISTA      N/A     80  68  66 W13       29.92F
IMPERIAL BEACH MOSUNNY   73  66  78 NW15      30.00F
BROWN FIELD    SUNNY     76  64  66 W10       29.99F
MIRAMAR MCAS   MOSUNNY   75  62  64 NW13      30.00S
MONTGOMERY FLD SUNNY     76  62  62 NW12      29.99F

$$

NORTH SAN DIEGO COUNTY

CITY           SKY/WX    TMP DP  RH WIND       PRES   REMARKS
CAMP PENDLETON SUNNY     78  57  48 SW9G17    29.96F
OCEANSIDE AP   SUNNY     74  62  66 W12G20    29.98F
VISTA            N/A     76  63  62 SW2       29.97F
CARLSBAD       SUNNY     74  62  66 W8        29.99F
DEL MAR          N/A     76  67  73 CALM      30.02S
LA JOLLA SCRIP   N/A     71  67  87 NW6       29.98S
FALLBROOK        N/A     77  62  59 S5        29.97F
ESCONDIDO        N/A     79  64  60 W9        30.01S
SAN MARCOS       N/A     76  63  64 SW7       29.97F
POWAY            N/A     82  63  52 N2        29.99S
R. PENASQUITOS   N/A     80  64  58 SW9       29.99F

$$

EAST SAN DIEGO COUNTY

CITY           SKY/WX    TMP DP  RH WIND       PRES   REMARKS
RAMONA         SUNNY     83  58  42 NW14      30.01F
GILLESPIE FLD  FAIR      82  61  47 W14       30.00S
LA MESA          N/A     79  65  62 NW10      29.93S
JAMUL            N/A     83  62  48 NW8       29.96F
DESCANSO N       N/A     83  53  35 CALM      29.86F
MT. LAGUNA OBS   N/A     78  39  24 W3        29.82F
CAMPO            N/A     88  52  29 W13       30.02S

$$

ORANGE COUNTY AND THE LOS ANGELES BASIN

CITY           SKY/WX    TMP DP  RH WIND       PRES   REMARKS
JOHN WAYNE AP  SUNNY     81  60  48 SW8       29.98F
LAGUNA BEACH     N/A     79  63  57 N3        29.95F
LAKE FOREST FR   N/A     84  58  40 W5        29.88F
SANTA ANA        N/A     89  66  46 CALM      29.93F
HUNTINGTON BCH   N/A     75  65  72 SW7       30.01S
LOS ALAMITOS   SUNNY     82  56  41 W9        29.99S
FULLERTON      SUNNY     83  54  36 W8        29.98S
LONG BEACH     SUNNY     80  55  42 NW17      29.98F
L.A. AP        MOSUNNY   74  58  57 W12G22    29.99F
L.A. DOWNTOWN  SUNNY     81  55  40 VRB5      29.98F

$$

THE INLAND EMPIRE

CITY           SKY/WX    TMP DP  RH WIND       PRES   REMARKS
CORONA         SUNNY     88  56  33 MISG      29.98S
CHINO          SUNNY     87  54  32 W15       29.99S
ONTARIO        MOSUNNY   88  55  32 W13       29.99S
SAN BERNARDINO SUNNY     91  46  21 W12       29.99F
RIVERSIDE AP   SUNNY     89  56  32 W13       29.98F
RIV CYN CREST    N/A     89  65  44 W5        29.96F
MORENO VALLEY    N/A     92  58  31 W6        28.12F
MARCH ARB      SUNNY     89  56  33 W10       30.01F
HORSETHIEF CYN   N/A     92  47  21 N9        29.98S
PERRIS           N/A     90  52  26 NW5         N/A
MENIFEE          N/A     96  50  20 E5        30.03F
HEMET EAST       N/A     94  44  17 CALM      29.95F
FRENCH VALLEY  FAIR      88  61  40 S9        30.00S
TEMECULA         N/A     88  62  41 S7        29.94F

$$

SAN BERNARDINO AND RIVERSIDE COUNTY MOUNTAINS

CITY           SKY/WX    TMP DP  RH WIND       PRES   REMARKS
BIG BEAR AP    SUNNY     77  30  18 W12       30.35F
BIG BEAR SHEA    N/A     80  25  13 W1        30.05F
ANGELUS OAKS     N/A     82  46  27 CALM      29.88F
PINE COVE        N/A     75  42  30 SW2       29.95F

$$

SOUTHERN DESERT INCLUDING THE COACHELLA VALLEY

CITY           SKY/WX    TMP DP  RH WIND       PRES   REMARKS
PALM SPRINGS   SUNNY    108  40  10 NW17      29.84F HX 102
THOUSAND PALMS   N/A    106  41  10 NW12      29.78F HX 101
PALM DESERT      N/A    109  48  13 N5        27.85S HX 105
THERMAL        SUNNY    111  34   7 CALM      29.75F HX 104
BLYTHE         MOSUNNY  110  41   9 SE9       29.78F HX 104
IMPERIAL AP    MOSUNNY  109  34   7 VRB3      29.76F HX 102
EL CENTRO NAS  MOSUNNY  110  33   7 CALM      29.76F HX 102
MEXICALI       SUNNY    111  30   6 NW7       29.78  HX 103

$$

UPPER DESERT

CITY           SKY/WX    TMP DP  RH WIND       PRES   REMARKS
VICTORVILLE AP SUNNY     97  27   8 S15       30.04S
HESPERIA         N/A     90  46  21 W9        30.02F
GRAY BUTTE AP  NOT AVBL
PALMDALE       SUNNY     92  40  16 W22       30.03F
LANCASTER      SUNNY     91  39  16 SW21      30.02F
EDWARDS AFB    SUNNY     96  35  12 SW15G25   29.99S
DAGGETT        SUNNY    103  13   4 SE6       29.93F HX  95
29 PALMS N     MOSUNNY  104  30   7 SW13G20   30.00F HX  97
NEEDLES        SUNNY    112  25   5 W8        29.83F HX 103

$$

REGIONAL REPORTS

CITY           SKY/WX    TMP DP  RH WIND       PRES   REMARKS
SANTA BARBARA  SUNNY     79  57  46 W12       29.97F
SANDBERG       SUNNY     83  33  16 VRB7      30.21S
MT. WILSON       N/A     81  52  36 SW3         N/A
LAS VEGAS NV   SUNNY    108  15   3 S6        29.88F HX  99
PHOENIX AZ     MOSUNNY  111  45  11 W12G17    29.80F HX 106
TIJUANA        SUNNY     77  61  57 NW16      30.01F
ENSENADA NW      N/A     72  32  22 NW17      29.95F

$$

OFFSHORE ISLANDS

CITY           SKY/WX    TMP DP  RH WIND       PRES   REMARKS
CATALINA ARPT  SUNNY     68  58  70 W17       30.05F
SAN NICOLAS IS SUNNY    N/A N/A N/A W21G31    30.04F

$$

MARINE AND OFFSHORE BUOY REPORTS

STATION/POSITION SKY/WX   TEMP    WIND        PRES    SWELL
                          AIR SEA DIR/SP/G            HT/PER/DIR
                          (F)     (DEG/KT/KT) (MB)    (FT/S/D)
TANNER BANKS               67 67  310/ 16/ 17 1017.4F   3/290/11
S CLEMENTE BASIN           69 71  300/ 17/ 21 1015.6F   2/260/11
SAN NICOLAS IS.               68                N/A     2/290/11
SO. S. ROSA ISLA           68 69  300/ 17/ 19 1017.2F   3/11
W. S. BARBARA CH           67 66  300/ 19/ 23 1016.7F   3/310/ 9
M. S. BARBARA CH           69 68  270/ 21/ 25 1015.9F
S. MONICA BASIN            71 71  280/ 16/ 19 1015.6F   2/240/11
S PEDRO CHANNEL               70                N/A
DANA POINT                    69                N/A     2/210/12
CMP PENDLETON NS              67                N/A     2/220/13
OCEANSIDE OFFSHR              70                N/A     2/210/13
TORREY PINES OTR              71                N/A     2/230/13
LA JOLLA 1                 70 67  330/  8/  9 1015.9F
MISSION BAY BUOY              70                N/A     2/190/13
SAN DIEGO BAY                 74              1016.0S
POINT LOMA SOUTH              70                N/A     2/230/13

$$




USA.gov is the U.S. government's official web portal to all federal, state and local government web resources and services.